Vorticity
14 10 4 34 3 44 20 -4 -1 1 41 32 8 -17 45 3 8 2 5 9 14 17 9 7 10 3 17 12 11 3 -6 9 -2 7 13 -4 0 32 18 12 10 11 7 7
17 8 22 46 12 38 24 -7 26 -5 5 7 -17 19 38 3 -18 3 5 -4 -1 3 6 8 19 14 14 6 8 14 17 6 10 -1 1 0 4 9 -4 1 9 4 9 13
14 17 33 13 47 7 25 12 13 -17 -4 14 22 15 32 4 7 -9 -5 -1 1 -1 13 4 3 6 11 10 7 7 8 9 6 7 13 10 9 9 8 6 9 9 13 14
2 17 38 -52 39 15 2 1 6 2 -9 3 -0 7 5 23 -5 19 0 14 6 -2 -2 1 3 10 18 10 7 8 6 8 9 8 7 5 8 5 17 13 12 14 10 7
25 20 8 32 32 9 17 -5 5 25 -18 -6 17 -2 19 13 5 18 10 11 12 7 4 6 4 -0 -1 -5 10 13 11 7 7 6 7 7 8 10 8 15 8 -0 -6 10
21 9 8 8 21 27 3 17 10 8 15 8 -3 -3 24 14 14 0 22 4 0 5 3 6 12 12 12 3 7 -2 -1 6 8 10 8 6 8 9 6 7 -0 3 2 -2
4 11 5 5 15 9 16 -10 -3 1 5 5 23 7 -16 22 12 15 34 11 12 10 5 4 7 4 3 19 12 9 15 7 2 8 12 7 8 8 9 9 10 7 11 14
22 -15 7 17 -9 34 0 -5 19 9 9 10 31 11 3 25 13 1 9 16 16 17 16 13 17 17 12 10 11 7 9 11 1 7 4 8 15 14 10 11 8 -6 1 13
5 0 14 21 14 -18 18 -18 9 5 14 -2 5 19 17 15 17 3 6 1 2 8 14 18 15 14 13 11 17 24 12 17 9 5 12 10 1 6 19 9 -6 5 -29 7
21 -8 14 10 17 1 16 8 4 13 7 7 14 6 -14 23 2 3 7 3 7 9 9 5 10 15 17 15 9 13 13 11 7 6 7 8 4 6 16 7 19 2 28 11
1 13 19 -16 18 22 4 3 12 7 12 12 8 14 21 -1 27 12 10 10 12 12 13 11 11 17 13 16 9 9 11 9 9 14 14 16 21 12 12 9 4 25 48 -20
20 21 -1 9 6 8 2 3 5 7 11 10 8 5 34 30 12 8 17 20 18 10 6 9 9 14 19 15 10 9 8 4 11 9 9 7 4 17 -0 -2 18 9 8 7
11 25 -2 9 10 10 1 8 1 1 -1 10 8 11 2 2 7 12 7 1 -9 3 -3 -1 2 4 7 10 21 19 13 11 10 9 5 4 10 13 10 10 7 2 -10 7
4 11 16 17 22 15 12 18 8 -1 3 9 -9 -16 -13 2 7 8 -1 1 2 5 4 7 6 7 7 3 -0 -0 7 17 20 13 12 8 -4 20 14 2 -1 15 9 -6
10 9 3 2 2 3 5 13 21 6 1 -3 -9 -0 4 -2 3 0 5 -1 -5 -12 -8 -2 -0 -2 7 9 5 5 2 1 3 11 15 16 15 4 2 10 10 7 -6 8
5 13 9 6 13 16 8 5 2 7 17 16 10 8 6 6 1 15 24 10 1 -1 -1 -1 6 3 3 3 3 3 9 17 9 2 7 13 12 13 12 14 9 18 25 13
4 7 9 7 7 8 23 9 22 20 20 22 14 20 17 17 17 17 12 9 12 18 24 22 20 20 17 17 14 10 11 16 18 12 5 9 14 16 17 16 12 8 7 8
9 11 7 9 9 14 14 -1 11 9 10 2 3 9 8 15 17 19 18 18 15 12 9 11 12 12 13 13 10 9 11 15 16 21 9 10 13 14 12 9 8 7 6 7
5 5 6 9 9 2 14 9 3 2 -1 14 24 22 15 12 11 11 15 14 13 14 15 14 13 16 13 10 9 7 11 14 14 23 12 11 12 9 9 7 6 7 7 9
5 3 -2 9 7 4 16 -1 -5 10 35 6 5 3 4 3 3 -2 1 5 8 10 10 10 11 13 13 14 16 9 9 14 19 18 10 11 11 9 6 6 7 6 7 6
13 18 8 0 0 15 14 6 5 25 -1 -3 -3 -1 -0 0 1 2 -1 1 6 9 10 7 12 12 16 17 16 14 14 16 18 15 14 9 8 7 6 6 6 5 5 5
6 8 15 21 5 18 15 13 7 -5 -9 -7 -4 0 1 1 2 4 6 9 11 10 6 7 12 12 12 17 20 18 18 20 15 10 7 -0 3 6 6 6 4 4 6 5
8 -8 7 -8 8 2 2 -1 -3 -1 -0 3 4 5 2 0 3 9 12 14 10 10 6 10 11 12 12 13 19 25 22 21 9 8 6 10 15 10 6 8 4 1 3 5
18 1 -5 9 19 13 11 10 8 9 5 4 6 10 15 21 29 40 35 16 16 14 -9 13 10 10 17 12 17 16 18 19 12 8 8 4 12 15 21 6 7 5 4 5
7 7 15 8 8 13 17 18 13 13 13 11 9 12 13 14 20 4 13 22 27 14 29 18 5 6 9 21 14 17 16 17 14 14 7 12 16 18 6 5 8 2 4 0
8 5 2 1 14 10 8 7 9 10 10 8 10 12 22 19 21 15 12 9 12 30 41 7 7 7 10 11 10 11 16 12 13 11 7 19 14 10 2 -3 4 7 17 18
Height
3010 3010 3010 3011 3019 3023 3031 3036 3044 3048 3050 3056 3054 3063 3068 3073 3077 3081 3087 3092 3097 3102 3107 3112 3115 3117 3121 3126 3129 3133 3136 3140 3142 3145 3148 3150 3151 3154 3159 3159 3159 3160 3161 3162
3011 3010 3011 3013 3017 3023 3031 3038 3047 3052 3053 3056 3058 3061 3060 3068 3075 3078 3085 3090 3094 3099 3104 3108 3112 3114 3117 3123 3126 3130 3132 3135 3136 3139 3141 3144 3146 3150 3152 3151 3153 3153 3155 3156
3012 3012 3012 3016 3019 3025 3031 3038 3044 3050 3055 3062 3064 3060 3057 3067 3073 3076 3082 3087 3091 3095 3101 3105 3108 3111 3115 3118 3122 3125 3128 3131 3133 3136 3138 3139 3140 3141 3144 3144 3146 3147 3148 3151
3014 3014 3012 3017 3022 3028 3032 3039 3046 3048 3057 3059 3062 3065 3063 3065 3069 3073 3079 3083 3088 3089 3096 3101 3105 3108 3112 3116 3119 3122 3125 3126 3129 3130 3133 3135 3135 3136 3138 3138 3142 3143 3144 3146
3016 3017 3015 3021 3026 3032 3035 3040 3042 3046 3056 3064 3067 3066 3063 3065 3067 3069 3076 3081 3084 3085 3090 3095 3100 3104 3108 3112 3115 3116 3118 3120 3124 3124 3128 3128 3130 3132 3133 3134 3135 3136 3137 3141
3020 3021 3021 3025 3031 3035 3038 3044 3051 3057 3060 3067 3064 3069 3063 3067 3069 3071 3074 3078 3080 3082 3086 3090 3094 3097 3100 3103 3106 3110 3112 3115 3116 3119 3121 3123 3124 3126 3127 3128 3130 3130 3131 3132
3027 3028 3030 3032 3034 3040 3045 3047 3055 3063 3065 3064 3062 3067 3061 3063 3065 3066 3068 3073 3076 3079 3082 3085 3089 3091 3094 3096 3100 3103 3105 3108 3111 3114 3116 3118 3119 3121 3122 3122 3121 3121 3122 3123
3031 3037 3037 3038 3041 3043 3047 3047 3049 3057 3062 3062 3064 3063 3060 3059 3062 3065 3067 3068 3072 3075 3078 3080 3083 3085 3088 3090 3093 3096 3099 3103 3106 3108 3110 3111 3114 3115 3116 3115 3116 3114 3114 3116
3035 3038 3040 3041 3044 3048 3048 3048 3057 3057 3059 3060 3065 3062 3061 3061 3063 3065 3066 3069 3072 3075 3078 3079 3080 3082 3083 3084 3086 3089 3091 3095 3099 3102 3103 3105 3107 3108 3108 3109 3109 3108 3108 3111
3038 3041 3044 3045 3047 3050 3052 3057 3060 3058 3064 3063 3062 3062 3063 3062 3064 3066 3070 3073 3074 3074 3074 3076 3077 3078 3079 3079 3081 3082 3085 3088 3091 3095 3097 3098 3099 3101 3101 3102 3102 3103 3102 3104
3039 3042 3049 3049 3050 3050 3052 3053 3054 3057 3062 3064 3067 3064 3063 3065 3066 3070 3073 3072 3072 3072 3072 3073 3073 3074 3074 3075 3077 3079 3081 3083 3085 3087 3088 3090 3092 3093 3095 3096 3098 3098 3095 3096
3039 3042 3047 3050 3052 3054 3055 3058 3060 3061 3066 3065 3066 3068 3064 3065 3068 3070 3071 3068 3068 3068 3069 3071 3072 3071 3071 3071 3073 3075 3076 3078 3079 3079 3081 3083 3085 3087 3089 3089 3091 3091 3092 3092
3043 3045 3049 3052 3056 3055 3056 3058 3059 3060 3061 3062 3065 3067 3066 3067 3068 3069 3069 3068 3067 3068 3070 3070 3070 3069 3070 3069 3069 3070 3071 3073 3074 3075 3075 3077 3079 3079 3082 3084 3086 3085 3086 3084
3045 3046 3047 3049 3051 3054 3056 3057 3058 3060 3062 3063 3064 3065 3066 3066 3067 3067 3066 3066 3066 3067 3067 3067 3068 3068 3066 3066 3068 3067 3068 3068 3069 3070 3070 3072 3073 3072 3074 3077 3078 3079 3078 3077
3046 3048 3049 3050 3051 3053 3054 3056 3057 3058 3060 3061 3061 3060 3063 3064 3064 3063 3062 3061 3060 3060 3061 3062 3062 3061 3062 3063 3064 3064 3063 3063 3063 3063 3064 3065 3065 3065 3067 3068 3070 3071 3071 3070
3047 3049 3050 3050 3051 3052 3053 3054 3054 3055 3055 3055 3056 3055 3058 3058 3057 3057 3057 3056 3056 3056 3056 3056 3055 3055 3055 3056 3057 3056 3056 3056 3055 3056 3056 3057 3058 3059 3060 3062 3063 3064 3065 3065
3049 3049 3050 3051 3052 3052 3053 3051 3052 3052 3053 3054 3053 3054 3052 3052 3050 3050 3050 3049 3047 3046 3046 3046 3045 3045 3045 3046 3046 3045 3046 3046 3046 3047 3048 3049 3050 3052 3053 3055 3057 3058 3058 3059
3049 3050 3050 3051 3051 3055 3051 3050 3050 3050 3050 3049 3050 3049 3048 3046 3045 3044 3043 3041 3040 3039 3038 3038 3037 3036 3036 3037 3037 3036 3036 3036 3038 3038 3040 3042 3043 3045 3047 3049 3051 3051 3052 3053
3049 3050 3050 3052 3052 3052 3050 3049 3049 3048 3048 3047 3046 3045 3043 3042 3039 3039 3037 3036 3034 3032 3031 3029 3028 3028 3028 3028 3028 3027 3027 3028 3029 3030 3033 3035 3037 3038 3041 3043 3044 3046 3046 3046
3048 3049 3052 3052 3053 3052 3049 3048 3047 3046 3046 3045 3043 3041 3039 3037 3034 3034 3032 3030 3028 3026 3024 3023 3021 3019 3018 3019 3018 3018 3019 3019 3021 3024 3027 3029 3031 3033 3036 3037 3038 3040 3040 3041
3046 3048 3049 3051 3052 3048 3047 3047 3046 3046 3047 3040 3039 3037 3035 3032 3031 3027 3026 3023 3021 3018 3017 3015 3013 3011 3009 3009 3008 3009 3011 3012 3016 3018 3019 3021 3024 3027 3029 3031 3033 3033 3034 3034
3045 3046 3046 3047 3048 3047 3044 3044 3045 3043 3039 3037 3034 3032 3028 3024 3021 3018 3015 3013 3012 3011 3009 3007 3005 3003 3002 3000 2999 3000 3002 3006 3007 3010 3011 3014 3017 3020 3022 3024 3025 3026 3027 3027
3045 3044 3044 3046 3044 3042 3042 3041 3039 3036 3034 3031 3027 3023 3018 3014 3010 3007 3005 3004 3002 3002 3000 2999 2997 2996 2994 2993 2991 2992 2994 2996 2999 3001 3004 3007 3009 3011 3014 3016 3018 3019 3020 3020
3040 3040 3040 3042 3040 3040 3040 3039 3035 3032 3028 3025 3020 3013 3008 3002 2998 2997 2996 2993 2991 2991 2990 2991 2989 2989 2988 2986 2986 2986 2987 2989 2992 2995 2998 2999 3001 3003 3006 3008 3011 3012 3013 3012
3037 3037 3037 3037 3036 3035 3034 3032 3027 3024 3020 3015 3009 3003 2998 2991 2988 2985 2979 2978 2977 2977 2978 2980 2981 2982 2982 2980 2980 2980 2982 2984 2987 2989 2991 2992 2994 2996 2998 3000 3003 3004 3005 3004
3033 3033 3034 3033 3033 3032 3030 3026 3021 3016 3009 3003 2996 2990 2988 2984 2978 2974 2970 2968 2966 2965 2966 2969 2972 2973 2974 2975 2975 2975 2976 2978 2981 2983 2985 2986 2988 2989 2991 2993 2995 2996 2996 2996